Flag for Germany Weather past 2 weeks in Pfaffenhofen an der Ilm, Bavaria, Germany

Now
95 °F

Extremely hot.


Feels Like: 94 °F
Forecast: 66 / 80 °F
Wind: 8 mph from South

Location: Ingolstadt Airport

Current Time: Jul 5, 2015 at 5:16:16 PM

Latest Report: Jul 5, 2015 at 4:20 PM


Visibility: N/A

Pressure: 30.01 "Hg

Humidity: 28%

Dew point: 57 °F

Location of Pfaffenhofen an der IlmLocation

Historic Weather in Pfaffenhofen an der Ilm — Graph

°F

Pfaffenhofen an der Ilm temperature yesterday

Maximum temperature yesterday: 93 °F (at 3:20 PM)
Minimum temperature yesterday: 64 °F (at 5:20 AM)
Average temperature yesterday: 80 °F

Past Weeks' High & Low Weather Summary

 TemperatureHumidityPressure
High95 °F (Jul 5, 2:20 PM)100% (Jun 25, 2:20 AM)30.30 "Hg (Jun 25, 2:20 AM)
Low45 °F (Jun 25, 4:20 AM)28% (Jul 5, 2:20 PM)29.74 "Hg (Jun 23, 12:20 AM)
Average66 °F69%30.12 "Hg
* Reported Jun 20 3:20 PM — Jul 5 3:20 PM, Pfaffenhofen an der Ilm, Weather by CustomWeather, © 2015

Note: Actual official high and low records may vary slightly from our data, if they occured in-between our weather recording intervals... More about our weather records

Advertising

Pfaffenhofen an der Ilm weather history for previous 24 hours

 ConditionsComfort  
Time TempWeatherWind HumidityBarometerVisibility
3:20 PM
Sun, Jul 5
95 °FExtremely hot.8 mph28%30.04 "HgN/A
2:20 PM95 °FExtremely hot.7 mph28%30.04 "HgN/A
1:20 PM93 °FExtremely hot.7 mph34%30.07 "HgN/A
12:20 PM91 °FHot.7 mph41%30.07 "Hg4 mi
11:20 AM88 °FWarm.6 mph49%30.09 "Hg4 mi
10:20 AM82 °FWarm.3 mph62%30.09 "Hg4 mi
9:20 AM79 °FWarm.2 mph65%30.12 "Hg4 mi
8:20 AM75 °FMild.3 mph69%30.12 "Hg4 mi
7:20 AM72 °FMild.2 mph78%30.12 "Hg4 mi
6:20 AM68 °FMild.5 mph83%30.12 "Hg5 mi
5:20 AM66 °FMild.1 mph88%30.12 "Hg4 mi
4:20 AM70 °FMild.3 mph78%30.12 "Hg5 mi
3:20 AM72 °FMild.5 mph78%30.12 "Hg5 mi
2:20 AM70 °FMild.3 mph88%30.12 "Hg5 mi
1:20 AM73 °FMild.3 mph78%30.15 "Hg5 mi
12:20 AM73 °FMild.2 mph83%30.12 "Hg5 mi
11:20 PM
Sat, Jul 4
75 °FMild.2 mph78%30.12 "Hg4 mi
10:20 PM79 °FWarm.3 mph70%30.12 "Hg5 mi
9:20 PM81 °FWarm.2 mph66%30.12 "Hg5 mi
8:20 PM88 °FWarm.2 mph46%30.12 "Hg6 mi
7:20 PM91 °FHot.5 mph38%30.12 "Hg6 mi
6:20 PM93 °FExtremely hot.5 mph34%30.12 "Hg6 mi
5:20 PM93 °FExtremely hot.6 mph34%30.15 "HgN/A
Weather by CustomWeather, © 2015

See weather overviewHow to use our weather pages